Vorticity
10 11 23 29 25 25 18 18 10 10 7 23 14 4 4 10 8 6 6 6 8 12 10 11 10 9 10 10 12 10 10 7 8 7 7 6 6 7 9 9 11 13 13 10 8 12 10 4 14 7 4 12 12 7
10 10 12 -0 12 9 11 8 10 19 8 3 4 7 5 9 11 11 13 13 13 11 12 11 10 11 11 11 8 8 7 6 5 6 6 7 8 8 5 4 6 6 10 13 10 10 12 8 9 11 9 13 11 8
31 8 6 8 4 15 13 12 9 11 8 7 4 5 15 16 10 11 10 10 11 10 15 13 11 8 7 6 6 5 4 3 5 4 5 5 5 7 6 6 4 4 5 5 8 12 11 11 9 11 15 15 10 5
11 16 11 8 13 8 12 9 6 8 7 5 9 14 11 9 6 8 12 14 16 12 8 8 8 9 7 5 2 2 1 1 0 1 3 6 6 7 6 7 6 8 7 9 8 6 8 10 13 13 15 15 10 8
9 -1 13 17 14 10 8 6 5 8 10 15 14 7 5 10 14 15 12 11 9 4 2 2 4 2 2 3 5 8 10 10 11 12 14 15 16 20 13 10 6 10 9 9 8 3 11 5 9 10 11 16 11 11
22 15 5 5 5 5 5 9 16 14 8 6 9 15 13 14 11 10 8 3 1 3 3 2 5 11 14 17 18 18 17 19 18 16 20 24 23 23 17 20 13 14 15 13 10 9 8 5 5 6 6 7 12 9
4 5 7 5 4 7 16 8 6 11 12 12 11 12 10 8 10 3 2 5 3 3 8 13 18 21 23 25 26 27 26 25 29 33 34 29 29 26 25 25 25 18 23 15 7 6 7 5 8 7 7 6 6 7
7 6 6 9 13 11 9 12 12 9 9 12 10 7 11 4 1 4 5 5 9 13 20 26 25 28 26 23 25 26 24 26 27 28 35 29 30 32 57 41 46 42 39 30 27 26 14 4 5 7 6 9 8 5
7 10 8 7 10 14 11 8 9 11 11 6 10 6 2 2 5 7 13 15 20 26 27 30 25 25 21 20 21 24 27 26 32 30 3 26 6 -5 24 9 7 18 35 38 29 27 24 32 21 12 5 4 4 5
7 5 10 13 11 9 11 12 11 8 7 8 3 1 6 10 14 18 21 21 27 23 22 16 16 16 24 25 29 22 19 14 4 -3 23 23 29 12 22 15 22 16 -0 25 51 37 33 26 26 26 22 16 14 13
12 13 10 9 10 11 11 10 7 7 6 2 4 10 13 15 21 23 25 19 16 16 14 12 16 32 32 23 20 11 11 9 5 33 27 2 10 1 2 12 18 7 15 17 17 12 51 54 40 35 29 24 21 19
10 9 10 12 11 10 7 8 7 5 4 8 12 16 22 26 24 18 12 13 14 15 13 12 30 24 18 3 6 4 12 19 23 6 -1 14 -6 -17 11 40 23 21 14 11 19 12 16 19 28 20 26 35 34 31
12 13 11 9 7 5 8 7 6 7 14 18 25 29 25 8 15 13 11 11 11 11 14 23 26 20 4 -2 5 10 21 22 4 4 9 3 1 22 27 8 12 12 7 16 24 24 20 13 12 13 16 18 18 16
8 8 6 7 10 8 7 8 11 23 23 25 23 18 12 10 12 12 11 11 12 17 16 27 28 8 -2 4 9 21 14 4 4 2 4 11 16 22 10 20 22 5 9 19 18 12 15 27 36 20 15 32 23 25
8 8 9 7 7 9 13 18 26 23 23 20 16 8 9 12 12 10 12 14 17 12 18 30 17 -4 1 11 9 9 2 1 3 7 10 12 15 14 19 2 11 18 18 15 25 16 15 7 19 13 10 10 25 24
7 8 9 13 17 22 23 21 22 20 14 10 10 9 9 10 9 12 14 15 13 12 19 30 7 0 5 12 9 13 5 6 15 6 13 13 12 12 11 10 8 29 18 -1 17 15 18 25 9 17 19 16 17 18
12 16 20 20 19 20 20 21 16 12 6 6 11 12 10 10 11 14 15 16 19 9 34 20 1 3 10 5 3 7 9 9 8 1 17 17 11 12 9 12 15 18 17 15 29 8 29 25 -16 6 37 17 29 30
18 18 19 19 21 18 16 12 10 5 6 11 9 10 14 19 17 14 14 15 15 13 40 10 -3 3 8 2 5 6 12 7 2 24 9 5 9 15 22 16 18 8 10 17 -2 8 27 -8 -5 12 26 30 26 37
16 15 20 20 17 15 11 7 5 6 11 8 8 11 18 19 18 19 18 19 15 34 22 3 5 3 3 3 1 1 16 6 3 15 14 15 -4 20 12 23 23 9 11 13 -4 6 7 9 15 27 30 17 19 14
19 23 20 17 14 10 6 4 4 11 7 7 8 10 18 18 22 20 20 20 11 45 7 1 0 6 6 6 7 11 12 -1 12 14 26 19 4 24 11 29 20 7 19 11 -5 8 14 22 22 26 23 20 12 14
20 13 17 19 7 5 7 0 10 9 7 6 8 17 21 24 23 24 31 17 36 23 17 -1 3 10 12 10 9 12 7 5 18 24 13 21 27 18 12 27 13 8 9 1 7 15 29 32 18 11 18 21 21 20
22 23 20 13 5 3 3 2 8 5 6 9 10 24 30 17 17 29 36 29 27 23 7 -2 6 1 14 16 10 2 9 21 24 28 28 12 17 17 20 23 13 13 9 4 33 30 23 21 17 13 11 11 7 8
16 15 9 8 7 5 7 11 8 2 6 11 25 27 22 14 31 35 37 26 19 11 -4 -5 1 5 13 11 3 8 22 27 28 18 14 18 17 25 25 18 13 8 10 27 7 18 8 15 18 10 6 6 7 8
12 7 8 4 7 19 21 12 2 1 10 18 26 27 16 30 41 35 17 14 9 6 5 2 4 14 11 4 9 17 28 26 16 14 18 17 23 15 13 11 6 20 16 9 16 20 15 -1 8 4 6 8 9 12
12 6 6 4 8 12 8 5 7 7 11 28 25 23 25 37 22 7 5 7 4 -2 -3 5 11 11 9 7 11 34 26 19 12 18 16 19 15 10 8 14 11 13 14 16 19 2 -6 13 10 6 9 11 11 11
8 10 9 13 9 6 5 3 9 11 13 26 20 25 34 7 7 9 6 4 7 -1 0 15 15 9 5 9 31 23 21 11 15 16 15 10 8 3 7 19 22 19 14 2 -2 4 14 9 9 11 12 12 10 8
8 11 23 27 18 13 9 9 10 11 19 31 12 25 19 4 4 10 9 5 2 -6 11 17 15 6 6 11 33 24 16 11 15 13 16 8 9 8 14 17 12 -3 -2 8 5 5 8 13 14 13 12 13 10 8
16 26 14 24 24 16 11 13 13 12 21 28 8 22 19 8 6 7 3 7 2 3 18 17 9 7 9 19 25 22 16 11 12 13 13 10 14 13 11 4 -0 4 11 14 12 10 10 13 13 10 7 9 14 23
21 34 16 4 5 9 13 16 14 12 30 23 10 15 26 10 11 10 8 7 3 12 17 14 13 5 9 20 22 21 15 12 12 14 11 9 9 8 6 6 8 8 10 15 13 13 9 9 8 9 13 17 21 10
20 27 25 27 31 26 15 13 13 15 29 21 11 17 21 7 9 9 7 5 10 15 14 16 11 7 9 17 21 21 16 12 13 13 11 8 4 4 4 6 9 9 9 9 7 5 8 13 15 14 17 14 7 7
11 14 13 13 11 10 15 17 14 21 30 13 14 18 19 13 8 9 6 9 15 14 14 16 12 10 10 13 19 18 20 12 10 15 14 13 9 7 9 9 11 10 7 5 5 7 15 16 16 12 8 4 5 2
5 11 13 13 18 17 11 13 16 23 28 5 16 15 16 16 11 10 4 8 14 13 14 14 14 13 12 9 16 16 17 17 11 12 15 17 14 11 7 5 5 6 5 1 0 6 15 14 20 14 12 10 10 5
10 4 0 2 6 24 21 12 16 22 26 2 16 14 14 13 14 10 4 5 14 12 12 14 13 14 15 9 12 15 15 15 13 13 12 15 11 9 4 6 9 8 7 3 9 10 13 12 9 10 10 10 9 9
Height
5526 5531 5534 5537 5542 5546 5548 5548 5551 5553 5556 5555 5555 5557 5558 5557 5559 5558 5559 5557 5556 5555 5554 5553 5551 5550 5550 5549 5548 5547 5545 5544 5544 5543 5541 5541 5541 5541 5541 5543 5543 5544 5545 5544 5545 5545 5543 5548 5555 5557 5560 5562 5563 5563
5517 5521 5526 5530 5534 5536 5537 5540 5543 5544 5545 5545 5546 5547 5547 5547 5547 5547 5548 5546 5545 5544 5544 5541 5539 5539 5538 5538 5537 5536 5533 5531 5530 5530 5529 5529 5530 5529 5531 5532 5533 5533 5534 5534 5534 5535 5534 5535 5544 5548 5550 5553 5553 5554
5509 5514 5518 5522 5525 5526 5529 5531 5534 5535 5534 5536 5537 5538 5538 5537 5536 5536 5535 5535 5535 5533 5531 5530 5529 5529 5527 5525 5524 5523 5519 5515 5516 5513 5512 5514 5514 5516 5517 5519 5520 5521 5521 5522 5522 5525 5525 5526 5530 5537 5540 5542 5541 5543
5501 5506 5510 5513 5516 5519 5521 5523 5525 5526 5526 5526 5526 5526 5527 5526 5525 5525 5524 5523 5523 5521 5519 5519 5517 5516 5514 5511 5509 5505 5501 5499 5498 5496 5494 5496 5497 5499 5500 5501 5504 5505 5505 5507 5510 5510 5512 5516 5520 5522 5525 5529 5533 5536
5495 5499 5504 5507 5509 5511 5513 5515 5515 5517 5517 5516 5515 5516 5516 5515 5515 5513 5513 5511 5510 5511 5508 5506 5503 5500 5497 5494 5490 5485 5481 5479 5477 5476 5475 5477 5477 5477 5479 5477 5481 5484 5487 5486 5494 5495 5497 5503 5506 5510 5514 5519 5522 5527
5491 5494 5497 5500 5502 5504 5506 5506 5506 5506 5506 5507 5507 5506 5505 5505 5503 5502 5502 5500 5498 5496 5494 5492 5487 5481 5476 5471 5467 5463 5459 5457 5454 5453 5456 5459 5458 5451 5448 5450 5460 5459 5466 5471 5475 5475 5484 5488 5494 5498 5502 5506 5511 5516
5486 5490 5492 5494 5495 5496 5496 5497 5498 5498 5498 5497 5496 5496 5495 5494 5493 5492 5491 5487 5484 5481 5477 5475 5469 5461 5455 5451 5447 5445 5441 5439 5438 5436 5437 5435 5438 5428 5425 5428 5441 5440 5442 5447 5450 5456 5465 5469 5480 5481 5488 5496 5502 5507
5480 5482 5485 5486 5488 5489 5489 5488 5489 5488 5487 5487 5486 5485 5485 5483 5482 5480 5476 5472 5468 5465 5461 5457 5451 5445 5441 5438 5435 5432 5428 5426 5426 5423 5424 5421 5422 5418 5419 5418 5419 5420 5421 5425 5430 5434 5446 5452 5462 5469 5478 5483 5489 5495
5474 5476 5478 5479 5480 5480 5480 5480 5479 5479 5478 5477 5477 5476 5474 5472 5469 5465 5460 5456 5452 5451 5444 5440 5436 5435 5431 5428 5425 5423 5422 5420 5420 5419 5417 5417 5416 5416 5414 5412 5411 5410 5407 5409 5409 5416 5421 5433 5445 5453 5461 5470 5477 5484
5468 5469 5470 5471 5471 5471 5471 5470 5470 5469 5469 5468 5467 5465 5461 5459 5454 5451 5446 5443 5440 5437 5434 5431 5427 5425 5422 5419 5418 5419 5419 5419 5418 5419 5416 5414 5415 5415 5413 5411 5409 5405 5402 5399 5398 5402 5405 5415 5424 5432 5441 5450 5459 5468
5461 5462 5463 5463 5463 5462 5462 5461 5461 5461 5459 5458 5455 5453 5449 5445 5441 5438 5435 5433 5432 5431 5427 5422 5419 5417 5416 5416 5416 5417 5418 5417 5416 5415 5413 5413 5412 5409 5407 5406 5404 5401 5399 5396 5394 5396 5399 5404 5411 5419 5428 5435 5442 5449
5454 5454 5454 5454 5453 5453 5453 5452 5452 5451 5449 5446 5444 5440 5437 5433 5431 5430 5428 5427 5426 5424 5421 5418 5416 5414 5414 5416 5416 5417 5415 5415 5414 5412 5412 5409 5409 5408 5407 5404 5402 5400 5399 5398 5397 5398 5400 5403 5406 5411 5417 5424 5431 5438
5445 5446 5446 5446 5446 5445 5444 5443 5442 5439 5437 5434 5432 5429 5427 5425 5424 5424 5422 5420 5419 5418 5416 5413 5412 5413 5415 5415 5415 5415 5414 5413 5412 5411 5410 5409 5409 5407 5405 5404 5401 5399 5399 5398 5398 5399 5400 5403 5406 5410 5415 5419 5424 5430
5438 5438 5438 5438 5437 5435 5434 5432 5431 5428 5426 5424 5423 5422 5421 5420 5419 5417 5416 5416 5415 5413 5411 5410 5410 5412 5413 5414 5414 5413 5413 5411 5411 5410 5410 5409 5408 5405 5404 5402 5401 5400 5399 5399 5400 5401 5402 5403 5405 5410 5414 5417 5421 5426
5430 5430 5429 5428 5426 5425 5423 5421 5421 5419 5419 5418 5418 5416 5415 5414 5413 5411 5411 5411 5410 5408 5407 5407 5409 5410 5412 5412 5412 5413 5412 5411 5410 5409 5409 5408 5407 5406 5404 5403 5402 5401 5400 5400 5400 5401 5403 5406 5409 5412 5415 5418 5422 5427
5421 5420 5419 5417 5416 5415 5414 5413 5413 5413 5413 5414 5412 5411 5409 5408 5407 5406 5406 5405 5404 5403 5402 5404 5406 5408 5410 5411 5412 5412 5412 5411 5410 5409 5408 5408 5406 5406 5405 5404 5403 5402 5402 5403 5403 5404 5406 5408 5412 5415 5418 5421 5425 5431
5411 5410 5409 5408 5407 5407 5407 5408 5408 5408 5408 5408 5407 5405 5403 5402 5400 5400 5399 5398 5398 5399 5399 5401 5404 5406 5408 5410 5411 5410 5410 5410 5409 5409 5407 5406 5406 5405 5405 5404 5403 5403 5405 5405 5406 5408 5409 5410 5414 5417 5419 5423 5428 5434
5402 5401 5401 5401 5402 5402 5403 5403 5403 5403 5403 5402 5401 5399 5397 5395 5394 5392 5392 5392 5393 5393 5396 5399 5402 5404 5406 5409 5410 5410 5409 5409 5407 5406 5406 5406 5405 5404 5404 5404 5405 5406 5407 5408 5410 5412 5414 5416 5418 5420 5424 5427 5432 5438
5395 5395 5395 5396 5397 5398 5399 5399 5399 5399 5398 5396 5395 5392 5390 5387 5385 5384 5384 5385 5387 5388 5393 5397 5400 5403 5405 5407 5408 5408 5408 5407 5407 5405 5404 5403 5403 5403 5403 5403 5405 5408 5409 5411 5413 5415 5417 5418 5421 5424 5428 5433 5439 5445
5388 5388 5389 5391 5392 5394 5395 5396 5395 5394 5394 5392 5388 5385 5382 5379 5377 5377 5377 5379 5382 5385 5391 5397 5400 5402 5405 5406 5406 5406 5406 5405 5404 5403 5402 5401 5402 5402 5403 5403 5406 5409 5411 5414 5417 5418 5419 5422 5424 5428 5433 5439 5445 5450
5382 5384 5385 5387 5389 5391 5393 5392 5391 5390 5389 5386 5382 5379 5376 5372 5371 5370 5371 5374 5378 5383 5390 5395 5399 5402 5403 5404 5404 5404 5404 5403 5401 5400 5400 5400 5401 5402 5403 5405 5408 5411 5415 5418 5419 5420 5422 5425 5429 5433 5438 5444 5450 5455
5378 5380 5382 5384 5387 5388 5389 5389 5387 5386 5384 5381 5377 5373 5370 5368 5366 5365 5367 5371 5377 5383 5390 5396 5399 5400 5401 5402 5403 5403 5402 5400 5398 5398 5398 5400 5401 5402 5405 5407 5411 5415 5419 5421 5422 5424 5427 5430 5435 5440 5444 5449 5454 5459
5378 5379 5381 5383 5385 5386 5387 5385 5384 5382 5379 5376 5372 5369 5367 5366 5364 5364 5367 5372 5379 5386 5392 5395 5398 5400 5401 5401 5401 5401 5399 5398 5397 5398 5400 5401 5402 5404 5408 5412 5415 5419 5422 5424 5427 5430 5433 5437 5441 5446 5450 5455 5459 5464
5377 5379 5380 5381 5382 5382 5381 5381 5380 5379 5376 5373 5369 5367 5366 5365 5365 5367 5372 5378 5383 5389 5393 5396 5398 5399 5400 5400 5400 5399 5398 5398 5399 5400 5401 5403 5406 5409 5413 5416 5420 5423 5425 5428 5432 5435 5439 5443 5447 5450 5454 5459 5462 5466
5377 5378 5379 5379 5379 5379 5378 5378 5377 5375 5373 5370 5368 5367 5367 5367 5370 5373 5377 5382 5387 5391 5394 5395 5396 5398 5399 5400 5399 5398 5398 5399 5401 5402 5405 5408 5410 5414 5417 5421 5424 5426 5429 5433 5436 5440 5445 5448 5451 5455 5458 5462 5465 5469
5375 5376 5376 5375 5375 5375 5375 5375 5374 5373 5371 5369 5369 5369 5370 5372 5374 5378 5381 5385 5389 5391 5393 5395 5396 5397 5398 5399 5398 5398 5400 5401 5403 5405 5409 5411 5415 5418 5421 5424 5427 5431 5435 5438 5442 5446 5450 5453 5456 5459 5462 5465 5468 5471
5371 5370 5369 5368 5369 5370 5371 5371 5370 5370 5369 5369 5369 5370 5372 5374 5377 5381 5383 5386 5389 5392 5393 5394 5395 5397 5398 5399 5399 5399 5401 5403 5406 5409 5412 5416 5419 5422 5425 5428 5432 5436 5440 5442 5445 5448 5451 5455 5458 5461 5464 5468 5471 5474
5368 5366 5365 5365 5365 5366 5367 5367 5367 5367 5367 5368 5369 5370 5373 5375 5378 5381 5384 5387 5389 5391 5392 5394 5396 5398 5399 5399 5399 5401 5403 5405 5408 5411 5415 5419 5422 5426 5429 5433 5436 5439 5443 5445 5448 5451 5453 5456 5460 5463 5466 5469 5472 5475
5364 5362 5362 5362 5363 5363 5364 5364 5365 5365 5365 5366 5368 5370 5373 5375 5378 5381 5384 5386 5389 5391 5392 5394 5396 5398 5399 5399 5401 5402 5405 5407 5411 5414 5418 5421 5425 5429 5432 5435 5439 5441 5444 5447 5450 5453 5456 5459 5462 5464 5467 5470 5472 5476
5362 5360 5359 5359 5360 5360 5362 5362 5363 5362 5363 5365 5367 5369 5372 5375 5378 5381 5383 5386 5388 5389 5391 5393 5395 5398 5399 5400 5402 5404 5406 5409 5412 5416 5420 5423 5426 5429 5433 5436 5439 5442 5446 5449 5452 5455 5458 5460 5462 5465 5467 5470 5473 5476
5363 5361 5361 5360 5360 5360 5360 5361 5361 5361 5362 5364 5366 5368 5371 5374 5377 5379 5382 5385 5387 5389 5391 5393 5395 5397 5399 5401 5402 5405 5407 5410 5413 5417 5420 5424 5426 5430 5433 5437 5440 5443 5446 5450 5453 5455 5458 5460 5462 5464 5467 5469 5472 5475
5362 5362 5361 5361 5360 5360 5360 5360 5360 5360 5361 5364 5366 5368 5371 5373 5376 5379 5382 5384 5386 5388 5390 5392 5395 5397 5399 5401 5403 5405 5408 5410 5413 5416 5420 5423 5427 5430 5433 5436 5440 5443 5446 5449 5452 5455 5457 5460 5462 5464 5467 5470 5472 5474
5360 5360 5360 5360 5360 5359 5359 5359 5359 5360 5361 5363 5365 5367 5369 5372 5375 5377 5380 5383 5385 5387 5389 5392 5394 5396 5398 5401 5403 5405 5407 5410 5413 5416 5419 5423 5426 5428 5432 5435 5438 5441 5444 5447 5450 5453 5456 5458 5461 5463 5465 5467 5469 5471